Das Wetter in  D-61279 Heinzenberg / Taunus





Wetter Minimum- & Maximum-Werte im Mrz 2012

Standort: Heinzenberg / Taunus - Höhe 297 m         8 24' 1" Ost 50 21' 51" Nord
(   3-stündige Aktualisierung    letzte Aktualisierung um 19:04 am 31.03.2012  )


Messgrösse

Minimum

Maximum

Durchschnitt

Temperatur West /
Luftfeuchte West
Anklicken für Monats-Diagramm

-3,4 C

06:45
07.03.2012

20 %

15:00
25.03.2012

22,4 C

16:13
16.03.2012

99 %

01:04
01.03.2012

Temp

7,4 C

Feuchte

76 %

Temperatur Ost /
Luftfeuchte Ost
Anklicken für Monats-Diagramm

-3,0 C

06:55
07.03.2012

--

--
--

22,4 C

14:45
25.03.2012

--

--
--

7,6 C

--

Luftdruck Anklicken für Monats-Diagramm

1011,0 hPa

13:21
31.03.2012

1040,0 hPa

09:16
09.03.2012

1027,3 hPa

Taupunkt

-4,8 C

06:45
07.03.2012

11,1 C

14:19
01.03.2012

2,9 C

Windchill
( gefühlte Temperatur )

-10,4 C

04:36
08.03.2012

21,9 C

18:10
25.03.2012

5,4 C

Windgeschwindigkeit /
Windrichtung
Anklicken für Monats-Diagramm

---

46,2 km/h / W-SW

16:24
17.03.2012

7,0 km/h
W-NW

Helligkeit /
Sonnenschein
Anklicken für Monats-Diagramm
Anklicken für Monats-Diagramm

Sonnenschein:

153:16 Stunden

Max: 11:00 Std am
25.03.2012

84,6 klux

15:16
31.03.2012

23,4 klux

Solarstrahlung Anklicken für Monats-Diagramm

---

579 W/m

15:16
31.03.2012

174 W/m

Regenmenge
    Mrz 2012
Anklicken für Monats-Diagramm

Insgesamt 10,9 l/m

in 26:32 Stunden
an 12 Tagen

7,3 l/m

13:50
18.03.2012

Gesamtmenge

10,9 l/m

Regen-Tage
    Mrz 2012
Anklicken für Monats-Diagramm

>   0 mm/Tag

>   2 mm/Tag

>   5 mm/Tag

> 10 mm/Tag

> 20 mm/Tag

12 Tage     
  1 Tag     
  1 Tag     
0 Tage     
0 Tage     

Eisige Tage Mrz 2012 / 2011

Tmin ≤ -10C     

0 Tage

/

0 Tage

Eistage Mrz 2012 / 2011

Tmax <     0C     

0 Tage

/

0 Tage

Frosttage Mrz 2012 / 2011

Tmin ≤     0C     

9 Tage

/

15 Tage

Kalte Tage Mrz 2012 / 2011

Tmax <   10C     

11 Tage

/

7 Tage

Warme Tage Mrz 2012 / 2011

Tmax ≥   20C     

8 Tage

/

0 Tage

Sommertage Mrz 2012 / 2011

Tmax ≥   25C     

0 Tage

/

0 Tage

Heisse Tage Mrz 2012 / 2011

Tmax ≥   30C     

0 Tage

/

0 Tage


Monatsdiagramm Mrz 2012

Die Kurven zeigen den Durchschnittswert des jeweiligen Tages an


Wetter-Monatsübersicht Mrz 2012
Datum
  Temperatur
   Luftdruck
   Wind
  Regen
   Luftfeuchte
   Helligkeit

Sonnen-
schein


Temp.

Min.
Temp.

Max.
Temp.


Luftdruck

Min.
Luftdruck

Max.
Luftdruck

-Geschw.
Haupt-Richtg.

Max.
Wind

Menge /
Dauer


Feuchte

Min.
Feuchte

Max.
Feuchte


Helligkeit

Max.
Helligkeit

1.
Mrz
7,9 C5,1 C
00:04
13,3 C
15:49
1026,0 hPa1024,7 hPa
15:49
1026,8 hPa
00:04
1,3 km/h
W-NW
14,3 km/h
15:14  
0,2 l/m
1:30 Stunden
97 %83 %
15:59
99 %
01:04
16,6 klux57,2 klux
14:29
2:35 Std 
2.
Mrz
6,7 C5,6 C
06:25
8,4 C
13:10
1026,8 hPa1025,6 hPa
21:00
1027,7 hPa
08:20
1,6 km/h
O-SO
15,7 km/h
20:05  
0,2 l/m
1:10 Stunden
99 %98 %
14:50
99 %
00:00
6,6 klux17,4 klux
12:40
--- 
3.
Mrz
6,3 C5,6 C
07:51
6,8 C
11:41
1024,4 hPa1023,5 hPa
14:51
1025,7 hPa
23:37
3,0 km/h
O-SO
18,5 km/h
03:46  
0,5 l/m
1:45 Stunden
98 %97 %
11:31
99 %
00:01
4,7 klux9,2 klux
11:01
--- 
4.
Mrz
7,0 C3,6 C
06:37
10,4 C
13:07
1021,1 hPa1015,1 hPa
22:58
1025,7 hPa
01:12
4,3 km/h
O-SO
21,5 km/h
23:48  
---
16 Minuten
88 %68 %
15:42
99 %
00:02
12,0 klux32,1 klux
12:02
--- 
5.
Mrz
4,7 C2,5 C
07:43
6,7 C
00:03
1017,9 hPa1013,2 hPa
03:13
1021,9 hPa
23:14
15,5 km/h
W-SW
37,7 km/h
06:53  
0,6 l/m
2:35 Stunden
78 %65 %
12:53
94 %
07:43
11,6 klux73,0 klux
11:58
10 Min 
6.
Mrz
4,1 C-1,7 C
07:39
11,1 C
16:24
1025,4 hPa1021,9 hPa
00:04
1028,7 hPa
23:55
3,8 km/h
O-SO
23,1 km/h
13:54  
---
68 %40 %
16:19
90 %
07:44
32,6 klux56,9 klux
12:44
9:16 Std 
7.
Mrz
2,4 C-3,4 C
06:45
8,6 C
13:10
1022,8 hPa1014,8 hPa
23:56
1028,9 hPa
03:25
12,6 km/h
W-SW
38,8 km/h
20:15  
1,2 l/m
3:41 Stunden
76 %49 %
12:10
95 %
23:46
18,1 klux49,0 klux
11:50
50 Min 
8.
Mrz
3,9 C-0,4 C
23:56
8,1 C
15:11
1025,9 hPa1015,8 hPa
00:56
1035,8 hPa
23:56
16,9 km/h
W-NW
38,3 km/h
04:36  
0,6 l/m
1:30 Stunden
82 %59 %
16:21
98 %
02:41
23,1 klux69,5 klux
13:26
4:10 Std 
9.
Mrz
3,4 C-3,1 C
06:56
11,0 C
15:11
1037,8 hPa1035,7 hPa
17:36
1040,0 hPa
09:16
3,8 km/h
W-SW
21,2 km/h
15:21  
---
76 %50 %
15:16
95 %
08:06
31,4 klux68,0 klux
13:01
7:00 Std 
10.
Mrz
7,1 C3,5 C
02:27
9,9 C
13:57
1035,1 hPa1033,5 hPa
16:17
1037,3 hPa
00:42
8,0 km/h
W
25,1 km/h
14:32  
---
5 Minuten
80 %65 %
00:02
96 %
21:17
11,8 klux44,2 klux
11:07
10 Min 
11.
Mrz
8,3 C6,8 C
03:53
10,6 C
13:23
1033,1 hPa1031,6 hPa
22:54
1033,8 hPa
08:03
9,6 km/h
W-NW
21,6 km/h
11:23  
---
81 %65 %
13:33
94 %
04:08
11,2 klux63,0 klux
11:58
5 Min 
12.
Mrz
7,7 C5,4 C
06:39
12,0 C
15:44
1031,9 hPa1031,1 hPa
15:44
1032,8 hPa
23:45
12,5 km/h
W
27,0 km/h
11:29  
---
85 %69 %
15:54
93 %
06:54
18,0 klux61,8 klux
14:44
2:40 Std 
13.
Mrz
6,8 C6,1 C
23:26
7,9 C
12:20
1033,0 hPa1031,8 hPa
06:05
1033,8 hPa
09:40
2,2 km/h
NW
12,1 km/h
14:35  
---
83 %75 %
14:30
92 %
05:30
7,6 klux15,9 klux
14:40
--- 
14.
Mrz
5,2 C-0,8 C
23:52
9,5 C
16:41
1032,2 hPa1030,4 hPa
16:41
1033,1 hPa
08:41
1,1 km/h
NW
13,1 km/h
17:01  
---
81 %66 %
16:41
91 %
23:52
11,2 klux38,3 klux
16:21
1:19 Std 
15.
Mrz
5,8 C-2,8 C
05:57
18,4 C
16:37
1029,2 hPa1025,2 hPa
16:52
1032,9 hPa
02:52
1,8 km/h
SO
16,1 km/h
14:22  
---
10 Minuten
76 %42 %
16:12
96 %
09:27
34,9 klux61,1 klux
13:02
10:15 Std 
16.
Mrz
9,4 C-0,4 C
06:28
22,4 C
16:13
1022,7 hPa1018,5 hPa
16:48
1027,3 hPa
02:08
5,1 km/h
SO
28,0 km/h
14:43  
---
66 %21 %
15:28
93 %
08:38
34,9 klux61,0 klux
11:58
9:55 Std 
17.
Mrz
10,0 C2,8 C
07:04
17,7 C
14:09
1017,4 hPa1014,9 hPa
14:14
1019,6 hPa
02:24
11,0 km/h
W-SW
46,2 km/h
16:24  
---
69 %38 %
11:54
89 %
07:29
29,3 klux64,3 klux
12:04
5:40 Std 
18.
Mrz
6,9 C2,4 C
23:01
8,8 C
15:20
1017,0 hPa1014,0 hPa
08:55
1023,0 hPa
23:31
5,8 km/h
W-SW
30,2 km/h
11:50  
7,3 l/m
9:40 Stunden
92 %83 %
00:00
97 %
23:56
8,7 klux35,1 klux
14:25
--- 
19.
Mrz
5,6 C0,5 C
23:31
12,7 C
16:31
1029,3 hPa1022,9 hPa
01:26
1035,7 hPa
23:31
3,6 km/h
W
20,4 km/h
15:46  
---
77 %44 %
17:26
99 %
08:31
33,2 klux80,1 klux
12:11
7:50 Std 
20.
Mrz
4,9 C-2,6 C
06:26
15,0 C
16:41
1036,0 hPa1033,8 hPa
16:41
1038,0 hPa
08:16
3,5 km/h
W-NW
18,3 km/h
13:16  
---
67 %29 %
16:26
92 %
07:06
35,7 klux63,9 klux
12:26
9:45 Std 
21.
Mrz
7,3 C-1,4 C
05:47
18,2 C
16:27
1035,5 hPa1032,4 hPa
16:27
1038,1 hPa
05:57
3,4 km/h
SO
19,0 km/h
12:37  
---
67 %34 %
12:47
91 %
07:27
35,5 klux64,1 klux
12:47
9:40 Std 
22.
Mrz
10,2 C0,7 C
06:43
20,8 C
16:43
1031,1 hPa1026,9 hPa
16:43
1035,3 hPa
00:18
4,8 km/h
SO
23,0 km/h
12:58  
---
69 %35 %
16:33
95 %
08:28
36,4 klux65,7 klux
12:43
9:56 Std 
23.
Mrz
10,6 C1,7 C
06:44
20,2 C
16:29
1027,1 hPa1023,9 hPa
16:29
1029,6 hPa
00:29
3,6 km/h
SO
17,8 km/h
13:49  
---
70 %40 %
16:04
96 %
08:19
36,3 klux68,0 klux
11:44
9:55 Std 
24.
Mrz
10,4 C2,1 C
06:45
20,2 C
16:35
1026,7 hPa1024,1 hPa
17:05
1028,7 hPa
23:45
2,7 km/h
SO
20,3 km/h
14:20  
---
69 %38 %
15:45
94 %
07:45
35,5 klux70,9 klux
12:30
8:35 Std 
25.
Mrz
11,6 C3,1 C
07:40
21,9 C
17:35
1030,2 hPa1028,7 hPa
00:00
1033,7 hPa
23:56
4,1 km/h
SO
24,1 km/h
15:00  
---
57 %20 %
15:00
94 %
09:00
38,8 klux67,1 klux
13:20
11:00 Std 
26.
Mrz
10,4 C1,2 C
07:46
20,9 C
17:46
1033,6 hPa1031,1 hPa
17:46
1035,6 hPa
07:56
5,3 km/h
SO
20,3 km/h
15:06  
---
55 %23 %
18:11
86 %
08:06
39,1 klux66,6 klux
13:26
11:00 Std 
27.
Mrz
10,9 C1,2 C
07:42
20,8 C
16:52
1033,2 hPa1030,0 hPa
16:52
1035,6 hPa
07:42
4,9 km/h
SO
20,4 km/h
16:57  
---
60 %32 %
16:37
88 %
09:02
35,3 klux66,7 klux
12:12
9:50 Std 
28.
Mrz
11,6 C2,7 C
07:28
20,8 C
17:08
1029,5 hPa1024,9 hPa
18:03
1033,1 hPa
03:53
4,5 km/h
W-NW
18,1 km/h
14:58  
---
58 %26 %
17:18
91 %
08:43
37,5 klux73,8 klux
13:33
10:10 Std 
29.
Mrz
8,8 C6,2 C
07:34
11,7 C
15:59
1022,6 hPa1019,1 hPa
23:00
1026,6 hPa
01:34
17,8 km/h
W-NW
45,0 km/h
14:49  
---
69 %58 %
16:04
78 %
07:49
20,6 klux64,4 klux
11:29
50 Min 
30.
Mrz
7,6 C6,2 C
03:55
8,8 C
17:30
1018,8 hPa1017,1 hPa
23:06
1020,3 hPa
02:35
21,0 km/h
W
33,5 km/h
02:30  
0,5 l/m
2:10 Stunden
89 %74 %
00:00
97 %
06:00
8,3 klux25,1 klux
11:25
--- 
31.
Mrz
6,3 C1,6 C
23:57
8,9 C
18:16
1013,8 hPa1011,0 hPa
13:21
1017,9 hPa
23:57
18,4 km/h
W
39,0 km/h
14:21  
---
2:00 Stunden
82 %56 %
18:26
97 %
11:46
8,9 klux84,6 klux
15:16
40 Min 



Mrz
2012

Temperatur

  

Luftdruck

  

Wind

  

Regen

  

Luftfeuchte

  

Helligkeit

Sonnen-
schein

Min

Max

Min

Max

Max

Max

Min

Max

Max

Max

7,4 C

-3,4 C

06:45 Uhr
07.03.2012

22,4 C

16:13 Uhr
16.03.2012

1027,3 hPa

1011,0 hPa

13:21 Uhr
31.03.2012

1040,0 hPa

09:16 Uhr
09.03.2012

7,0 km/h

W-NW

46,2 km/h

16:24 Uhr
17.03.2012

7,3 l/m

9:40 Stunden
18.03.2012

76 %

20 %

15:00 Uhr
25.03.2012

99 %

01:04 Uhr
01.03.2012

23,4 klux

84,6 klux

15:16 Uhr
31.03.2012

11:00 Std

am
25.03.2012

Gesamt

Gesamt

10,9 l/m

12 Tage
26:32 h

153:16 Std


Wetter-Diagramme Mrz 2012     Heinzenberg / Taunus   
TemperaturLuftfeuchte
SolarstrahlungLuftdruck
HelligkeitSonnenschein
RegenmengeRegendauer
Wind-GeschwindigkeitWind-Richtung